This is the latest recevied weather packets stored in our database for station/object EA5GTE-12. If no packets are shown the sender has not sent any weather packets the latest 10 day(s).
| Time | Temp. | Humidity | Pressure | Rain* | Wind** | Luminosity | Snow |
|---|---|---|---|---|---|---|---|
| 1777759636 | 15° C | 100% | 939.6 hPa | - | - | - | - |
| 1777758736 | 15° C | 100% | 939.7 hPa | - | - | - | - |
| 1777757836 | 15° C | 100% | 939.5 hPa | - | - | - | - |
| 1777756936 | 15° C | 100% | 939.6 hPa | - | - | - | - |
| 1777756036 | 15° C | 100% | 939.6 hPa | - | - | - | - |
| 1777755136 | 15° C | 100% | 939.5 hPa | - | - | - | - |
| 1777754236 | 14.44° C | 100% | 939.5 hPa | - | - | - | - |
| 1777753336 | 15° C | 100% | 939.4 hPa | - | - | - | - |
| 1777752435 | 15° C | 100% | 939.2 hPa | - | - | - | - |
| 1777751535 | 15° C | 100% | 939.1 hPa | - | - | - | - |
| 1777750635 | 15.56° C | 100% | 938.8 hPa | - | - | - | - |
| 1777749735 | 15.56° C | 100% | 938.8 hPa | - | - | - | - |
| 1777747936 | 16.11° C | 100% | 938.7 hPa | - | - | - | - |
| 1777747036 | 16.67° C | 100% | 938.6 hPa | - | - | - | - |
| 1777746136 | 18.33° C | 100% | 938.8 hPa | - | - | - | - |
| 1777745235 | 17.22° C | 100% | 938.7 hPa | - | - | - | - |
| 1777744335 | 17.78° C | 100% | 938.8 hPa | - | - | - | - |
| 1777743435 | 18.33° C | 100% | 938.6 hPa | - | - | - | - |
| 1777742535 | 17.78° C | 100% | 938.8 hPa | - | - | - | - |
| 1777741636 | 17.78° C | 99% | 938.9 hPa | - | - | - | - |
| 1777740735 | 17.78° C | 100% | 938.9 hPa | - | - | - | - |
| 1777739835 | 18.33° C | 96% | 939 hPa | - | - | - | - |
| 1777738934 | 18.89° C | 96% | 939.2 hPa | - | - | - | - |
| 1777738035 | 18.89° C | 93% | 939.2 hPa | - | - | - | - |
| 1777737135 | 19.44° C | 86% | 939.2 hPa | - | - | - | - |
* Rain since midnight (hover to see other rain measurements)
** Current wind speed in m/s (hover to see current wind gust speed)